Regional Weather Roundup
Issued by NWS Grand Forks, ND

Home | Current Version | Previous Version | Graphics & Text | Print | Product List | Glossary Off
Versions: 1 2 3 4 5 6 7 8 9 10 11 12 13 14 15 16 17 18 19 20 21 22 23 24 25 26 27 28 29 30 31 32 33 34 35 36 37 38 39 40 41 42 43 44 45 46 47 48 49 50

000
ASUS43 KFGF 150310
RWRFGF
PRAIRIE TO PINES  WEATHER ROUNDUP
NATIONAL WEATHER SERVICE EASTERN NORTH DAKOTA/GRAND FORKS ND
900 PM CST THU DEC 14 2017

 **SATELLITE DATA USED TO AUGMENT SKY COVER AT AUTOMATED STATIONS**
 *****  WEATHER ACROSS EASTERN NORTH DAKOTA  *****

CITY           SKY/WX    TMP DP  RH WIND       PRES   REMARKS
GRAND FORKS    CLOUDY    20  17  88 CALM      30.03F
GRAND FRKS AFB CLOUDY    19  18  93 CALM      30.03R
GRAND FRKS NWS   N/A     19 N/A N/A MISG        N/A
DEVILS LAKE    FLURRIES  28  27  93 N14       29.98S WCI  17
FARGO          CLOUDY    24  21  88 E5        30.01F WCI  18
WAHPETON ARPT  CLOUDY    25  21  86 CALM      30.01F
$$

 ***** WEATHER ACROSS CENTRAL AND WESTERN NORTH DAKOTA  *****

CITY           SKY/WX    TMP DP  RH WIND       PRES   REMARKS
BISMARCK       CLOUDY    34  25  69 W7        30.05F
MINOT          CLOUDY    32  23  69 NW14      30.00F WCI  22
JAMESTOWN      CLOUDY    32  28  85 NW17G23   29.98F WCI  21
MINOT AFB      CLOUDY    31  22  69 NW15      29.99F WCI  21
GARRISON         N/A     33  24  69 NW14      30.01F WCI  23
WILLISTON      FAIR      25  21  85 W6        30.05F WCI  18
DICKINSON      FAIR      22  18  85 W9        30.03F WCI  12
HETTINGER      FAIR      20  17  88 W3        30.09F
$$

 *****  OTHER AIRPORT OBSERVATIONS IN OUR AREA  *****

CITY           SKY/WX    TMP DP  RH WIND       PRES   REMARKS
WALHALLA       FAIR      19  19 100 N13       30.03S WCI   7
GRAFTON AIRPOR CLOUDY    21  19  93 N10       30.05S WCI  10
VALLEY CITY AR LGT RAIN  30  30 100 W10       29.99F WCI  21
CANDO          CLOUDY    27  27 100 NE10      30.00S WCI  17
CAVALIER APRT  FLURRIES  19  18  93 N8G14     30.03S WCI   9
GWINNER          N/A     28  27  93 W10       30.01F FOG     WCI  19
SHEYENNE NWR     N/A     28  27  97 W6        29.95S WCI  22
ROLLA          CLOUDY    23  23 100 NE6       29.98S WCI  16
 ***** THE ABOVE OBSERVATIONS ARE NON NWS ARE NOT QUALITY
       CONTROLLED AND MAY MIS-REPORT RAIN FOR SNOW...
$$

  *****  WEATHER ACROSS NORTHERN MINNESOTA  *****

CITY           SKY/WX    TMP DP  RH WIND       PRES   REMARKS
FLAG ISLAND    CLOUDY    10   7  85 NW13      29.95F WCI  -5
WARROAD        LGT SNOW  12   9  85 NW12      29.98S WCI  -2
ROSEAU         FLURRIES  14   9  79 N17       29.98S WCI  -3
HALLOCK        MOCLDY    16  14  93 N7        30.02R WCI   6
THF RVR FALLS  FLURRIES  16  12  86 W8        30.00F WCI   5
BAUDETTE       LGT SNOW  12   8  84 NW13G22   29.93F FOG     WCI  -3
WASKISH        FLURRIES  12  10  92 W8        29.95F WCI   1
CROOKSTON      CLOUDY    18  18 100 W5        30.03F WCI  11
STEPHEN NDAWN    N/A     19  18  93 NW5         N/A  WCI  13
GREENBUSH NDAW   N/A     16  12  86 NW12        N/A  WCI   3
$$
  *****  WEATHER ACROSS CENTRAL AND WEST MINNESOTA  *****

CITY           SKY/WX    TMP DP  RH WIND       PRES   REMARKS
FOSSTON        LGT SNOW  12  10  92 W3        29.99F
BEMIDJI        FLURRIES  13  10  86 W7        29.96F WCI   3
PARK RAPIDS    FLURRIES  15  11  83 NW7       29.96F WCI   5
ELBOW LAKE     FLURRIES  22  21  95 SW5       30.01F WCI  16
WADENA         FLURRIES  18  14  86 NW7       29.98F WCI   8
DETROIT LAKES  LGT SNOW  18  16  93 CALM      30.00F
MOORHEAD       LGT RAIN  21  19  93 CALM      30.02F
FERGUS FALLS   CLOUDY    21  21 100 CALM      30.04F
MORRIS MN      CLOUDY    25  21  86 CALM      30.02F
STAPLES        CLOUDY    18  12  79 NW10      29.98F WCI   6
$$
  *****  WEATHER ELSEWHERE ACROSS MINNESOTA  *****

CITY           SKY/WX    TMP DP  RH WIND       PRES   REMARKS
DULUTH         LGT SNOW  13   8  81 NW12      29.88F WCI  -1
INTRNTL FALLS  LGT SNOW  12   6  77 W9        29.91F WCI   0
ELY            LGT SNOW  10   7  85 W7        29.87S WCI   0
CLOQUET        FLURRIES  16   9  73 NW10      29.90F WCI   3
WHEATON        CLOUDY    27  21  80 SW7       30.05F WCI  19
BRAINERD       CLOUDY    19  11  70 NW10G21   29.97S WCI   7
HIBBING        LGT SNOW  12   6  77 NW14      29.90F WCI  -3
ALEXANDRIA     CLOUDY    21  18  88 NW8       30.01S WCI  11
SAINT CLOUD    CLOUDY    21  14  74 NW14      30.00S WCI   8
MINNEAPOLIS    CLOUDY    23  17  78 W12G21    30.01F WCI  12
$$

  *****  WEATHER ACROSS SOUTH DAKOTA  *****

CITY           SKY/WX    TMP DP  RH WIND       PRES   REMARKS
SIOUX FALLS    CLOUDY    28  23  81 NW7       30.09F WCI  21
BROOKINGS      CLOUDY    26  22  84 W8        30.06F WCI  18
WATERTOWN      CLOUDY    26  23  88 W9        30.03F WCI  17
HURON          CLOUDY    28  25  88 SW6       30.10F WCI  22
SISSETON         N/A     30  25  81 W13       30.02F WCI  20
ABERDEEN       CLOUDY    30  26  85 W7        30.06F WCI  23
MITCHELL       CLOUDY    29  26  89 W6        30.14S WCI  23
PIERRE         CLOUDY    32  25  75 W12       30.12F WCI  23
MOBRIDGE       CLOUDY    34  25  69 W9        30.06F
RAPID CITY     FAIR      24  15  68 CALM      30.14F
$$

  *****  SOME WEATHER IN NEARBY STATES *****

CITY           SKY/WX    TMP DP  RH WIND       PRES   REMARKS
GLASGOW MT     FAIR      26  21  81 SW3       30.04F
GREAT FALLS MT FAIR      35  19  52 SW18      30.08F WCI  24
CHEYENNE WY    FAIR      25  13  60 NW13      30.16F WCI  14
SCOTTSBLUFF NE FAIR      19  15  84 NW6       30.21F WCI  11
OMAHA NE       CLOUDY    38  25  59 W10       30.12S
DES MOINES IA  CLOUDY    31  22  69 W5        30.08F
DAVENPORT IA   CLOUDY    25  15  66 SW8       30.09F WCI  16
CHICAGO IL     MOCLDY    21  11  65 W3        30.06S
EAU CLAIRE WI  FLURRIES  20  14  77 NW9       29.98S WCI   9
LA CROSSE WI   CLOUDY    26  18  71 W9        30.00F WCI  17
$$

  *****  SOME NATIONAL WEATHER *****

CITY           SKY/WX    TMP DP  RH WIND       PRES   REMARKS
LA GUARDIA NY  FAIR      26   8  46 NW14      30.09R WCI  14
RALEIGH NC     MOCLDY    41  26  55 NE7       30.01S
ATLANTA GA     CLOUDY    48  37  65 W6        29.99S
NEW ORLEANS LA CLOUDY    55  50  83 S6        30.02S
OKLAHOMA CITY  FAIR      34  25  69 SW6       30.17R
ALBUQUERQUE NM FAIR      37  15  40 E12       30.22R
SALT LAKE CITY FAIR      31  26  82 CALM      30.43R
LOS ANGELES CA FAIR      62  54  74 S3        30.04R
BOISE ID       CLOUDY    27  23  85 SE5       30.49R WCI  22
SEATTLE WA     MOCLDY    42  37  82 SE8       30.25F
$$

*** WEATHER ACROSS MANITOBA...SASKATCHEWAN AND ONTARIO ***
                ***ONTARIO***

CITY           SKY/WX    TMP DP  RH WIND       PRES   REMARKS
GERALDTON      PTCLDY    -2  -6  84 W3        29.80F
THUNDER BAY    FLURRIES  16  14  93 W5        29.85F WCI   9
SIOUX LOOKOUT  LGT SNOW   9   5  85 NW8       29.83F WCI  -4
TORONTO        PTCLDY    14   9  79 W10       30.01S WCI   1
BIG TROUT LK   FLURRIES -11 -17  77 NW12G17   29.91S WCI -31
PICKLE LAKE    NOT AVBL
DRYDEN         LGT SNOW   9   7  92 W10       29.85S WCI  -6
KENORA         FLURRIES   9   5  85 NW12      29.90F WCI  -6
$$
                *** MANITOBA***

CITY           SKY/WX    TMP DP  RH WIND       PRES   REMARKS
BRANDON        CLOUDY    21  18  86 E9        30.00F WCI  11
DAUPHIN        CLOUDY    18  16  93 E5        30.04F WCI  11
ISLAND LAKE    FLURRIES  -8 -11  84 N7        30.02F WCI -22
PILOT MOUND    NOT AVBL
THE PAS        FLURRIES   7   1  78 SE8       30.02F WCI  -6
THOMPSON       CLEAR    -24 -29  76 W3        30.03F
WINNIPEG       FLURRIES  14  10  85 NE8       30.02F WCI   3
LYNN LAKE      CLOUDY     0  -2  92 VRB2      29.96F
CHURCHILL      LGT SNOW  -8 -11  84 W12G17    30.00F DRFTSNOWWCI -27
GILLAM         PTCLDY   -13 -17  84 W7        30.02F WCI -29
$$
                ***SASKATCHEWAN***

CITY           SKY/WX    TMP DP  RH WIND       PRES   REMARKS
ESTEVAN        CLOUDY    28  21  74 W8        30.01F WCI  20
KINDERSLEY     CLOUDY    28  27  93 S7        29.91F WCI  21
LLOYDMINSTER   CLOUDY    34  28  80 SW13      29.81F WCI  25
PRINCE ALBERT  CLOUDY    27  23  86 S5        29.91F WCI  21
REGINA         MOCLDY    21  19  93 W5        29.98F WCI  15
YORKTON        CLOUDY    25  21  86 W8        29.95F WCI  16
N. BATTLEFORD  CLOUDY    30  25  80 SW9       29.89F WCI  22
LA RONGE       LGT SNOW  18  14  86 E5        29.90F WCI  11
SASKATOON      CLOUDY    28  25  86 S8        29.93F WCI  20
SWIFT CURRENT  CLOUDY    28  23  80 SW12      29.94F WCI  18
$$
NOTE: THESE ARE AUTOMATED STATIONS WITH LIMITED QUALITY CONTROL
      "FAIR" INDICATES FEW OR NO CLOUDS BELOW 12,000 FEET WITH NO
      SIGNIFICANT WEATHER AND/OR OBSTRUCTIONS TO VISIBILITY.
      SKY/WX - SKY CONDITION AND SIGNIFICANT WEATHER.
      TMP - AIR TEMPERATURE.    DP   - DEWPOINT TEMPERATURE.
      RH  - RELATIVE HUMIDITY.  PRES - PRESSURE.
      HX  - HEAT INDEX.         WCI  - WIND CHILL INDEX.
$



USA.gov is the U.S. government's official web portal to all federal, state and local government web resources and services.